DW9064 Weather Reports


Display with metric or nautical units.
time (UTC)temp
F
wind
direction
speed
MPH
gust
MPH
rain 1hr
in
rain 24hr
in
rain mn
in
humidity
%
barometer
mb
20260510055758 50 314 6.0 8.0 0.00 0.00 0.00 77 1032.3
20260510054858 50 314 6.0 8.0 0.00 0.00 0.00 77 1032.4
20260510052712 52 315 8.0 9.0 0.00 0.00 0.00 72 1032.3
20260510051812 52 315 8.0 9.0 0.00 0.00 0.00 72 1032.4
20260510050912 52 315 8.0 9.0 0.00 0.00 0.00 72 1032.1
20260510050016 52 315 8.0 9.0 0.00 0.00 0.00 72 1032.0
20260510045112 52 314 8.0 9.0 0.00 0.00 0.00 72 1032.1
20260510044212 54 337 6.0 8.0 0.00 0.00 0.00 70 1032.1
20260510043312 54 337 6.0 8.0 0.00 0.00 0.00 70 1032.0
20260510042412 54 337 6.0 8.0 0.00 0.00 0.00 70 1032.0
20260510041512 54 328 6.0 8.0 0.00 0.00 0.00 70 1031.8
20260510040612 54 314 6.0 9.0 0.00 0.00 0.00 68 1031.8
20260510035712 55 314 6.0 9.0 0.00 0.00 0.00 68 1031.7
20260510034812 55 314 6.0 8.0 0.00 0.00 0.00 66 1031.7
20260510033912 56 314 5.0 8.0 0.00 0.00 0.00 66 1031.6
20260510033016 57 314 4.0 10.0 0.00 0.00 0.00 62 1031.5
20260510032112 57 314 7.0 10.0 0.00 0.00 0.00 64 1031.4
20260510030312 59 314 7.0 9.0 0.00 0.00 0.00 61 1031.2
20260510025412 60 314 5.0 8.0 0.00 0.00 0.00 60 1031.2
20260510024512 60 314 6.0 8.0 0.00 0.00 0.00 60 1031.1
20260510023612 61 334 3.0 9.0 0.00 0.00 0.00 57 1031.1
20260510022712 62 314 7.0 8.0 0.00 0.00 0.00 58 1031.1
20260510021812 65 314 5.0 7.0 0.00 0.00 0.00 52 1031.1
20260510020016 65 314 4.0 8.0 0.00 0.00 0.00 48 1031.1
20260510015112 66 310 5.0 8.0 0.00 0.00 0.00 45 1031.1
20260510012412 67 309 5.0 8.0 0.00 0.00 0.00 45 1031.2
20260510011512 68 317 4.0 7.0 0.00 0.00 0.00 39 1031.3
20260510010612 70 302 4.0 8.0 0.00 0.00 0.00 39 1031.4
20260510004812 74 249 2.0 11.0 0.00 0.00 0.00 27 1031.4
20260510003912 75 215 8.0 11.0 0.00 0.00 0.00 17 1031.6
20260510003017 76 202 5.0 11.0 0.00 0.00 0.00 18 1031.4
20260510002112 77 213 3.0 8.0 0.00 0.00 0.00 16 1031.4
20260510001212 76 208 4.0 10.0 0.00 0.00 0.00 17 1031.6
20260510000312 76 197 3.0 9.0 0.00 0.00 0.00 17 1031.6
20260509235412 76 190 6.0 13.0 0.00 0.00 0.00 15 1031.7
20260509234511 76 189 10.0 13.0 0.00 0.00 0.00 16 1031.7
20260509233611 76 190 3.0 15.0 0.00 0.00 0.00 14 1031.9
20260509232712 76 249 5.0 11.0 0.00 0.00 0.00 15 1032.0
20260509231812 76 205 4.0 11.0 0.00 0.00 0.00 16 1032.1
20260509230912 77 193 6.0 11.0 0.00 0.00 0.00 15 1032.2
20260509225111 76 196 8.0 12.0 0.00 0.00 0.00 16 1032.3
20260509224211 76 198 4.0 12.0 0.00 0.00 0.00 15 1032.3
20260509223312 76 208 5.0 15.0 0.00 0.00 0.00 17 1032.5
20260509222411 76 333 6.0 9.0 0.00 0.00 0.00 15 1032.5
20260509221511 76 246 1.0 8.0 0.00 0.00 0.00 17 1032.5
20260509220611 76 229 4.0 13.0 0.00 0.00 0.00 17 1032.5
20260509215711 76 182 5.0 17.0 0.00 0.00 0.00 16 1032.6
20260509214811 76 194 6.0 18.0 0.00 0.00 0.00 15 1032.4
20260509213911 75 217 3.0 11.0 0.00 0.00 0.00 16 1032.8
20260509213017 75 213 8.0 12.0 0.00 0.00 0.00 15 1032.9
20260509212111 75 206 5.0 17.0 0.00 0.00 0.00 16 1032.8
20260509211211 75 201 7.0 17.0 0.00 0.00 0.00 15 1033.0
20260509210311 75 193 8.0 15.0 0.00 0.00 0.00 14 1032.9
20260509204511 75 229 7.0 13.0 0.00 0.00 0.00 16 1033.0
20260509203611 74 191 4.0 16.0 0.00 0.00 0.00 18 1033.2
20260509202711 74 198 8.0 15.0 0.00 0.00 0.00 20 1033.2
20260509201811 74 225 11.0 15.0 0.00 0.00 0.00 20 1033.2
20260509200911 74 189 8.0 14.0 0.00 0.00 0.00 20 1033.3
20260509200016 72 175 8.0 15.0 0.00 0.00 0.00 22 1033.4
20260509195111 73 171 8.0 15.0 0.00 0.00 0.00 23 1033.5
20260509193311 72 174 7.0 13.0 0.00 0.00 0.00 24 1033.8
20260509192411 71 195 8.0 36.0 0.00 0.00 0.00 22 1033.8
20260509191511 71 182 104.0 36.0 0.02 0.02 0.02 87 1033.9
20260509190611 71 188 6.0 13.0 0.00 0.00 0.00 22 1034.0
20260509185711 70 171 8.0 13.0 0.00 0.00 0.00 24 1034.1
20260509183911 68 166 7.0 9.0 0.00 0.00 0.00 33 1034.2
20260509183014 68 166 5.0 9.0 0.00 0.00 0.00 31 1034.3
20260509182111 67 206 5.0 9.0 0.00 0.00 0.00 33 1034.3
20260509181211 66 199 7.0 9.0 0.00 0.00 0.00 36 1034.4
20260509180311 66 175 4.0 8.0 0.00 0.00 0.00 40 1034.6
20260509175411 65 181 4.0 7.0 0.00 0.00 0.00 39 1034.6
20260509174511 65 169 3.0 6.0 0.00 0.00 0.00 48 1034.6
20260509173611 65 145 3.0 6.0 0.00 0.00 0.00 48 1034.7
20260509172711 63 135 3.0 7.0 0.00 0.00 0.00 48 1034.7
20260509171811 62 135 4.0 8.0 0.00 0.00 0.00 50 1034.7
20260509170911 62 101 4.0 8.0 0.00 0.00 0.00 52 1034.8
20260509170015 62 114 3.0 8.0 0.00 0.00 0.00 53 1034.7
20260509165111 62 135 4.0 8.0 0.00 0.00 0.00 56 1034.8
20260509164211 60 132 2.0 8.0 0.00 0.00 0.00 63 1034.9
20260509163311 60 125 2.0 8.0 0.00 0.00 0.00 64 1035.0
20260509161511 58 88 3.0 7.0 0.00 0.00 0.00 68 1035.2
20260509160611 58 111 2.0 8.0 0.00 0.00 0.00 70 1035.2
20260509155711 57 112 4.0 9.0 0.00 0.00 0.00 71 1035.3
20260509154811 56 103 3.0 10.0 0.00 0.00 0.00 72 1035.3
20260509153911 55 91 3.0 8.0 0.00 0.00 0.00 75 1035.2
20260509145411 52 64 3.0 6.0 0.00 0.00 0.00 81 1035.4
20260509144510 51 79 0.0 7.0 0.00 0.00 0.00 82 1035.5
20260509142710 49 79 2.0 6.0 0.00 0.00 0.00 87 1035.4
20260509141811 49 81 1.0 4.0 0.00 0.00 0.00 90 1035.3
20260509140910 47 81 1.0 4.0 0.00 0.00 0.00 92 1035.2
20260509135110 44 43 2.0 4.0 0.00 0.00 0.00 95 1035.2
20260509134211 43 357 2.0 4.0 0.00 0.00 0.00 96 1035.1
20260509133310 41 12 2.0 4.0 0.00 0.00 0.00 96 1034.9
20260509131510 39 334 4.0 6.0 0.00 0.00 0.00 96 1034.8
20260509130610 39 332 4.0 6.0 0.00 0.00 0.00 96 1034.7
20260509124810 39 316 4.0 6.0 0.00 0.00 0.00 96 1034.5
20260509123910 39 326 4.0 6.0 0.00 0.00 0.00 96 1034.4
20260509123015 39 316 4.0 5.0 0.00 0.00 0.00 96 1034.4
20260509121210 39 325 3.0 6.0 0.00 0.00 0.00 96 1034.0
20260509120310 39 326 3.0 6.0 0.00 0.00 0.00 96 1033.9
20260509115410 39 318 4.0 5.0 0.00 0.00 0.00 95 1033.9
20260509114510 39 314 4.0 5.0 0.00 0.00 0.00 95 1033.7
20260509113610 39 314 4.0 7.0 0.00 0.00 0.00 95 1033.6
20260509111810 40 315 4.0 8.0 0.00 0.00 0.00 96 1033.5
20260509110910 40 316 4.0 7.0 0.00 0.00 0.00 95 1033.5
20260509105110 40 315 4.0 6.0 0.00 0.00 0.00 95 1033.5
20260509103310 41 314 4.0 6.0 0.00 0.00 0.00 95 1033.3
20260509102410 41 314 4.0 6.0 0.00 0.00 0.00 95 1033.2
20260509101510 41 314 4.0 6.0 0.00 0.00 0.00 94 1033.1
20260509100610 42 317 4.0 7.0 0.00 0.00 0.00 94 1032.9
20260509095710 42 314 4.0 6.0 0.00 0.00 0.00 94 1032.8
20260509094810 42 314 4.0 7.0 0.00 0.00 0.00 94 1032.6
20260509093910 43 318 5.0 7.0 0.00 0.00 0.00 94 1032.5
20260509093015 43 324 5.0 7.0 0.00 0.00 0.00 93 1032.5
20260509092110 43 330 4.0 8.0 0.00 0.00 0.00 93 1032.5
20260509091210 43 327 6.0 8.0 0.00 0.00 0.00 93 1032.4
20260509090310 44 320 6.0 8.0 0.00 0.00 0.00 94 1032.4
20260509084510 44 322 5.0 7.0 0.00 0.00 0.00 94 1032.1
20260509083610 44 324 5.0 8.0 0.00 0.00 0.00 94 1031.9
20260509082710 44 322 5.0 8.0 0.00 0.00 0.00 94 1031.9
20260509081810 44 314 7.0 8.0 0.00 0.00 0.00 93 1031.8
20260509080910 45 330 5.0 8.0 0.00 0.00 0.00 93 1031.8
20260509075110 45 326 6.0 8.0 0.00 0.00 0.00 93 1031.5
20260509073310 46 325 5.0 8.0 0.00 0.00 0.00 93 1031.2
20260509072409 46 325 6.0 8.0 0.00 0.00 0.00 93 1031.1
20260509071510 46 319 5.0 8.0 0.00 0.00 0.00 93 1031.0
20260509065709 47 316 7.0 9.0 0.00 0.00 0.00 92 1030.9
20260509063910 47 318 5.0 8.0 0.00 0.00 0.00 92 1030.7
20260509063015 47 323 5.0 8.0 0.00 0.00 0.00 91 1030.5
20260509061210 48 314 8.0 9.0 0.00 0.00 0.00 91 1030.3
20260509060309 49 314 7.0 8.0 0.00 0.00 0.00 91 1030.3